CW1439 Weather Reports


time (UTC)temp
C
wind
direction
speed
KPH
gust
KPH
rain 1hr
cm
rain 24hr
cm
rain mn
cm
humidity
%
barometer
mb
20260504070340 6 226 0.0 0.0 0.00 0.00 0.00 67 1013.6
20260504050351 7 230 0.0 1.6 0.00 0.00 0.00 60 1013.7
20260504045845 7 229 0.0 1.6 0.00 0.00 0.00 60 1013.6
20260504045341 7 229 0.0 0.0 0.00 0.00 0.00 60 1013.7
20260504044837 7 230 0.0 0.0 0.00 0.00 0.00 59 1013.7
20260504044354 8 229 0.0 1.6 0.00 0.00 0.00 59 1013.7
20260504043851 8 229 0.0 3.2 0.00 0.00 0.00 58 1013.7
20260504043407 8 229 0.0 3.2 0.00 0.00 0.00 58 1013.7
20260504042841 8 236 1.6 3.2 0.00 0.00 0.00 57 1013.7
20260504042338 8 228 1.6 3.2 0.00 0.00 0.00 57 1013.5
20260504041836 8 236 0.0 3.2 0.00 0.00 0.00 57 1013.6
20260504041506 8 237 0.0 3.2 0.00 0.00 0.00 58 1013.6
20260504040849 8 236 0.0 1.6 0.00 0.00 0.00 58 1013.6
20260504040407 8 236 0.0 0.0 0.00 0.00 0.00 58 1013.6
20260504035842 8 236 0.0 0.0 0.00 0.00 0.00 58 1013.5
20260504035338 8 236 0.0 8.0 0.00 0.00 0.00 56 1013.4
20260504034914 9 236 0.0 8.0 0.00 0.00 0.00 56 1013.3
20260504034349 8 190 4.8 8.0 0.00 0.00 0.00 55 1013.2
20260504033844 8 255 3.2 6.4 0.00 0.00 0.00 56 1013.2
20260504033341 8 228 0.0 1.6 0.00 0.00 0.00 56 1013.2
20260504032839 8 228 0.0 1.6 0.00 0.00 0.00 55 1013.1
20260504032355 9 228 0.0 1.6 0.00 0.00 0.00 55 1013.1
20260504031853 9 228 0.0 1.6 0.00 0.00 0.00 55 1013.1
20260504031348 9 228 0.0 3.2 0.00 0.00 0.00 55 1013.1
20260504030850 9 228 0.0 3.2 0.00 0.00 0.00 54 1013.0
20260504030347 9 228 0.0 4.8 0.00 0.00 0.00 53 1012.9
20260504025845 10 248 1.6 4.8 0.00 0.00 0.00 53 1013.0
20260504025402 10 232 1.6 4.8 0.00 0.00 0.00 52 1013.0
20260504024836 10 249 1.6 4.8 0.00 0.00 0.00 52 1013.0
20260504024353 10 236 1.6 3.2 0.00 0.00 0.00 52 1013.0
20260504023850 10 214 0.0 1.6 0.00 0.00 0.00 51 1013.0
20260504023406 10 214 0.0 3.2 0.00 0.00 0.00 51 1013.0
20260504022842 10 214 1.6 3.2 0.00 0.00 0.00 51 1013.1
20260504022339 10 214 0.0 3.2 0.00 0.00 0.00 50 1013.0
20260504021856 10 214 0.0 3.2 0.00 0.00 0.00 51 1013.1
20260504021354 10 214 0.0 3.2 0.00 0.00 0.00 51 1013.1
20260504020851 10 206 0.0 3.2 0.00 0.00 0.00 51 1013.2
20260504020347 10 198 0.0 3.2 0.00 0.00 0.00 50 1013.2
20260504015843 10 200 0.0 4.8 0.00 0.00 0.00 50 1013.1
20260504015340 10 204 1.6 4.8 0.00 0.00 0.00 50 1013.1
20260504014854 10 184 1.6 3.2 0.00 0.00 0.00 50 1013.1
20260504014411 10 194 0.0 3.2 0.00 0.00 0.00 49 1013.1
20260504013846 10 193 1.6 3.2 0.00 0.00 0.00 50 1013.0
20260504013403 10 193 0.0 3.2 0.00 0.00 0.00 49 1013.0
20260504012844 10 192 1.6 3.2 0.00 0.00 0.00 49 1012.9
20260504012341 10 192 0.0 1.6 0.00 0.00 0.00 49 1012.8
20260504011837 11 193 1.6 3.2 0.00 0.00 0.00 48 1012.8
20260504011414 11 201 0.0 3.2 0.00 0.00 0.00 48 1012.8
20260504010849 11 193 0.0 3.2 0.00 0.00 0.00 47 1012.8
20260504010406 11 193 0.0 6.4 0.00 0.00 0.00 47 1012.8
20260504005841 11 210 3.2 8.0 0.00 0.00 0.00 45 1012.8
20260504005339 12 210 1.6 9.7 0.00 0.00 0.00 45 1012.7
20260504004915 12 195 3.2 9.7 0.00 0.00 0.00 44 1012.7
20260504004411 12 240 3.2 6.4 0.00 0.00 0.00 44 1012.6
20260504003848 12 245 3.2 9.7 0.00 0.00 0.00 44 1012.6
20260504003346 12 236 3.2 9.7 0.00 0.00 0.00 43 1012.6
20260504002902 12 243 3.2 8.0 0.00 0.00 0.00 43 1012.5
20260504002338 12 263 3.2 9.7 0.00 0.00 0.00 42 1012.4
20260504001836 12 224 3.2 11.3 0.00 0.00 0.00 41 1012.3
20260504001354 12 285 4.8 11.3 0.00 0.00 0.00 41 1012.3
20260504000911 13 245 1.6 11.3 0.00 0.00 0.00 41 1012.3
20260504000346 13 228 4.8 11.3 0.00 0.00 0.00 41 1012.2
20260503235838 13 235 4.8 11.3 0.00 0.00 0.00 41 1012.2
20260503235355 13 239 3.2 11.3 0.00 0.00 0.00 40 1012.1
20260503234852 13 253 4.8 14.5 0.00 0.00 0.00 40 1012.1
20260503234347 13 252 6.4 14.5 0.00 0.00 0.00 39 1012.2
20260503233845 13 301 6.4 14.5 0.00 0.00 0.00 38 1012.1
20260503233347 14 267 3.2 14.5 0.00 0.00 0.00 40 1012.1
20260503232843 14 262 8.0 19.3 0.00 0.00 0.00 38 1012.0
20260503232359 15 297 9.7 19.3 0.00 0.00 0.00 38 1012.0
20260503231853 15 290 4.8 19.3 0.00 0.00 0.00 38 1011.9
20260503231350 15 263 1.6 22.5 0.00 0.00 0.00 38 1012.0
20260503230847 15 269 3.2 22.5 0.00 0.00 0.00 39 1011.9
20260503230343 15 267 9.7 22.5 0.00 0.00 0.00 37 1011.9
20260503225841 15 287 9.7 22.5 0.00 0.00 0.00 37 1011.8
20260503225337 15 301 4.8 16.1 0.00 0.00 0.00 38 1011.8
20260503224914 15 242 3.2 22.5 0.00 0.00 0.00 37 1011.8
20260503224352 15 271 6.4 22.5 0.00 0.00 0.00 37 1011.9
20260503223847 15 276 9.7 27.4 0.00 0.00 0.00 37 1011.9
20260503223345 15 264 8.0 27.4 0.00 0.00 0.00 37 1011.9
20260503222841 15 295 14.5 24.1 0.00 0.00 0.00 36 1011.8
20260503222338 15 242 4.8 20.9 0.00 0.00 0.00 39 1011.9
20260503221915 15 266 8.0 20.9 0.00 0.00 0.00 37 1011.9
20260503221353 15 280 12.9 20.9 0.00 0.00 0.00 38 1011.9
20260503220851 15 329 8.0 19.3 0.00 0.00 0.00 37 1011.8
20260503220347 15 338 11.3 19.3 0.00 0.00 0.00 38 1011.9
20260503215848 15 316 4.8 17.7 0.00 0.00 0.00 36 1012.0
20260503215344 15 357 9.7 20.9 0.00 0.00 0.00 37 1012.0
20260503214841 15 278 4.8 20.9 0.00 0.00 0.00 37 1011.8
20260503214339 15 277 4.8 20.9 0.00 0.00 0.00 39 1011.8
20260503213836 15 262 4.8 22.5 0.00 0.00 0.00 38 1011.8
20260503213353 15 239 12.9 27.4 0.00 0.00 0.00 36 1011.9
20260503212850 15 298 9.7 27.4 0.00 0.00 0.00 37 1011.7
20260503212346 15 304 12.9 25.7 0.00 0.00 0.00 38 1011.8
20260503211904 15 287 4.8 19.3 0.00 0.00 0.00 37 1011.6
20260503211339 15 227 11.3 19.3 0.00 0.00 0.00 37 1011.7
20260503210915 15 284 6.4 25.7 0.00 0.00 0.00 37 1011.7
20260503210412 15 274 11.3 25.7 0.00 0.00 0.00 36 1011.6
20260503205848 14 284 4.8 17.7 0.00 0.00 0.00 38 1011.7
20260503205345 14 258 3.2 27.4 0.00 0.00 0.00 37 1011.8
20260503204844 14 304 11.3 27.4 0.00 0.00 0.00 37 1011.8
20260503204341 14 266 8.0 22.5 0.00 0.00 0.00 38 1011.8
20260503203836 14 276 9.7 22.5 0.00 0.00 0.00 38 1011.8
20260503203354 14 269 4.8 22.5 0.00 0.00 0.00 40 1011.8
20260503202850 15 62 6.4 22.5 0.00 0.00 0.00 36 1011.7
20260503202352 15 266 1.6 17.7 0.00 0.00 0.00 37 1011.8
20260503201909 15 170 6.4 17.7 0.00 0.00 0.00 36 1011.8
20260503201405 14 15 8.0 19.3 0.00 0.00 0.00 37 1011.9
20260503200839 14 278 6.4 19.3 0.00 0.00 0.00 38 1011.8
20260503200338 13 290 9.7 19.3 0.00 0.00 0.00 38 1012.1
20260503195836 13 295 8.0 19.3 0.00 0.00 0.00 36 1012.1
20260503195414 14 25 6.4 22.5 0.00 0.00 0.00 36 1012.1
20260503194849 14 290 9.7 24.1 0.00 0.00 0.00 38 1012.1
20260503194348 13 277 12.9 24.1 0.00 0.00 0.00 39 1012.2
20260503193844 13 351 11.3 20.9 0.00 0.00 0.00 37 1012.2
20260503193342 13 283 12.9 32.2 0.00 0.00 0.00 36 1012.3
20260503192839 13 340 11.3 32.2 0.00 0.00 0.00 36 1012.5
20260503192336 13 297 4.8 22.5 0.00 0.00 0.00 37 1012.5
20260503191854 13 285 0.0 22.5 0.00 0.00 0.00 37 1012.5
20260503191351 13 330 9.7 20.9 0.00 0.00 0.00 37 1012.6
20260503190848 13 228 9.7 22.5 0.00 0.00 0.00 38 1012.7
20260503190345 13 323 8.0 22.5 0.00 0.00 0.00 38 1012.7
20260503185843 13 330 4.8 20.9 0.00 0.00 0.00 39 1012.7
20260503185344 13 266 11.3 20.9 0.00 0.00 0.00 38 1012.8
20260503184842 13 260 4.8 27.4 0.00 0.00 0.00 39 1013.0
20260503184337 13 51 11.3 27.4 0.00 0.00 0.00 37 1012.9
20260503183914 12 277 4.8 22.5 0.00 0.00 0.00 41 1012.9
20260503183349 12 233 6.4 22.5 0.00 0.00 0.00 38 1013.0
20260503182847 12 276 9.7 19.3 0.00 0.00 0.00 38 1013.1
20260503182344 12 245 4.8 17.7 0.00 0.00 0.00 39 1013.0
20260503181843 12 15 6.4 24.1 0.00 0.00 0.00 38 1013.1
20260503181341 12 233 8.0 24.1 0.00 0.00 0.00 38 1013.1
20260503180836 12 297 12.9 24.1 0.00 0.00 0.00 38 1013.2
20260503180355 12 243 14.5 20.9 0.00 0.00 0.00 38 1013.2
20260503175852 12 291 8.0 19.3 0.00 0.00 0.00 39 1013.2
20260503175349 12 333 6.4 25.7 0.00 0.00 0.00 41 1013.4
20260503174848 11 332 8.0 25.7 0.00 0.00 0.00 41 1013.3
20260503174344 11 233 8.0 24.1 0.00 0.00 0.00 41 1013.4
20260503173842 11 228 16.1 29.0 0.00 0.00 0.00 38 1013.5
20260503173344 11 334 14.5 29.0 0.00 0.00 0.00 42 1013.5
20260503172841 11 313 9.7 17.7 0.00 0.00 0.00 39 1013.6
20260503172337 11 297 6.4 20.9 0.00 0.00 0.00 41 1013.5
20260503171836 11 337 6.4 32.2 0.00 0.00 0.00 42 1013.6
20260503171353 11 276 9.7 32.2 0.00 0.00 0.00 41 1013.8
20260503170849 11 285 4.8 25.7 0.00 0.00 0.00 40 1013.7
20260503170345 11 295 6.4 25.7 0.00 0.00 0.00 40 1013.7
20260503150842 9 337 9.7 27.4 0.00 0.00 0.00 41 1014.6
20260503150339 9 318 9.7 27.4 0.00 0.00 0.00 43 1014.5
20260503131402 7 37 8.0 20.9 0.00 0.00 0.00 54 1015.0
20260503130836 7 350 6.4 17.7 0.00 0.00 0.00 56 1014.9
20260503130353 6 332 8.0 19.3 0.00 0.00 0.00 57 1015.0
20260503110348 4 347 8.0 14.5 0.00 0.00 0.00 66 1014.2
20260503090350 5 15 3.2 8.0 0.00 0.00 0.00 66 1012.6
20260503081349 6 20 3.2 9.7 0.00 0.03 0.00 65 1012.4
20260503080905 6 4 4.8 9.7 0.00 0.03 0.00 65 1012.4
20260503080341 6 339 3.2 4.8 0.00 0.03 0.00 65 1012.4
20260503072846 6 6 0.0 4.8 0.00 0.03 0.00 65 1012.0
20260503072343 6 6 0.0 4.8 0.00 0.03 0.00 65 1012.0
20260503071841 6 6 0.0 6.4 0.00 0.03 0.00 64 1011.9
20260503071341 6 6 1.6 11.3 0.00 0.03 0.00 64 1011.9
20260503070837 6 9 3.2 11.3 0.00 0.03 0.00 64 1011.9